VIV127 MMLO-MMMX

Flight info

Callsign VIV127
Flight time N/A
Altitude 29000
Route UKIRO1C UKIRO UT130 DARAN DARAN3A
Aircraft A20N/M-SDE2E3FGHIRWXY/LB1

Departure

Time 2026-05-08 03:49
Airport Guanajuato International Airport (MMLO)

Arrival

Time N/A
Airport Mexico City Benito Juárez International Airport (MMMX)
Time Latitude Longitude Altitude Speed Heading
2026-05-08 03:35 20.98729 -101.47831 5915 ft 0 kts 146°
2026-05-08 03:43 20.98728 -101.47830 5915 ft 0 kts 133°
2026-05-08 03:43 20.98684 -101.47780 5912 ft 19 kts 130°
2026-05-08 03:43 20.98675 -101.47672 5913 ft 10 kts 43°
2026-05-08 03:43 20.98757 -101.47589 5914 ft 22 kts 41°
2026-05-08 03:44 20.98864 -101.47581 5915 ft 15 kts 314°
2026-05-08 03:44 20.98970 -101.47697 5917 ft 29 kts 313°
2026-05-08 03:44 20.99141 -101.47888 5920 ft 39 kts 315°
2026-05-08 03:44 20.99324 -101.48090 5926 ft 38 kts 312°
2026-05-08 03:45 20.99535 -101.48315 5933 ft 49 kts 315°
2026-05-08 03:45 20.99797 -101.48602 5934 ft 59 kts 314°
2026-05-08 03:45 21.00037 -101.48861 5935 ft 37 kts 315°
2026-05-08 03:45 21.00205 -101.49041 5943 ft 18 kts 318°
2026-05-08 03:46 21.00277 -101.49100 5950 ft 13 kts 328°
2026-05-08 03:46 21.00361 -101.49148 5954 ft 3 kts 295°
2026-05-08 03:46 21.00348 -101.49155 5947 ft 7 kts 192°
2026-05-08 03:46 21.00263 -101.49118 5943 ft 14 kts 135°
2026-05-08 03:47 21.00258 -101.49112 5944 ft 0 kts 134°
2026-05-08 03:48 21.00176 -101.49022 5944 ft 44 kts 134°
2026-05-08 03:48 20.99830 -101.48649 5933 ft 96 kts 134°
2026-05-08 03:48 20.99242 -101.48011 5925 ft 144 kts 135°
2026-05-08 03:49 20.98456 -101.47174 6064 ft 163 kts 136°
2026-05-08 03:49 20.97634 -101.46283 6345 ft 158 kts 133°
2026-05-08 03:49 20.97013 -101.45570 7412 ft 116 kts 133°
2026-05-08 03:49 20.96414 -101.44871 7574 ft 144 kts 133°
2026-05-08 03:50 20.95662 -101.43990 7648 ft 182 kts 133°
2026-05-08 03:50 20.94739 -101.42909 7685 ft 210 kts 132°
2026-05-08 03:50 20.93907 -101.41515 7650 ft 240 kts 109°
2026-05-08 03:50 20.93759 -101.39644 7671 ft 268 kts 81°
2026-05-08 03:51 20.94220 -101.37647 7686 ft 290 kts 73°
2026-05-08 03:51 20.94854 -101.35559 7931 ft 297 kts 72°
2026-05-08 03:51 20.95509 -101.33480 8556 ft 291 kts 72°
2026-05-08 03:51 20.96149 -101.31436 9325 ft 289 kts 73°
2026-05-08 03:52 20.96787 -101.29379 9987 ft 293 kts 73°
2026-05-08 03:52 20.97439 -101.27266 10330 ft 307 kts 74°
2026-05-08 03:52 20.98122 -101.25041 10576 ft 324 kts 73°
2026-05-08 03:52 20.98842 -101.22695 10746 ft 339 kts 73°
2026-05-08 03:53 20.99594 -101.20247 11077 ft 351 kts 74°
2026-05-08 03:53 21.00362 -101.17742 11517 ft 357 kts 73°
2026-05-08 03:53 21.01139 -101.15210 12033 ft 361 kts 73°
2026-05-08 03:53 21.01919 -101.12661 12510 ft 366 kts 72°
2026-05-08 03:54 21.02716 -101.10057 13013 ft 370 kts 72°
2026-05-08 03:54 21.03524 -101.07410 13521 ft 375 kts 72°
2026-05-08 03:54 21.04341 -101.04737 14058 ft 379 kts 72°
2026-05-08 03:54 21.05165 -101.02039 14537 ft 383 kts 72°
2026-05-08 03:55 21.05993 -100.99324 15113 ft 384 kts 72°
2026-05-08 03:55 21.06860 -100.96601 15611 ft 388 kts 70°
2026-05-08 03:55 21.07455 -100.93823 16141 ft 390 kts 89°
2026-05-08 03:55 21.07080 -100.90958 16649 ft 391 kts 110°
2026-05-08 03:56 21.05759 -100.88428 17142 ft 391 kts 132°
2026-05-08 03:56 21.03694 -100.86555 17687 ft 390 kts 148°
2026-05-08 03:56 21.01454 -100.84909 18211 ft 393 kts 144°
2026-05-08 03:56 20.99339 -100.83016 18652 ft 397 kts 139°
2026-05-08 03:57 20.97386 -100.80918 19109 ft 400 kts 134°
2026-05-08 03:57 20.95535 -100.78687 19569 ft 402 kts 132°
2026-05-08 03:57 20.93739 -100.76375 20026 ft 404 kts 131°
2026-05-08 03:57 20.91979 -100.74023 20463 ft 406 kts 130°
2026-05-08 03:58 20.90232 -100.71641 20897 ft 408 kts 130°
2026-05-08 03:58 20.88509 -100.69268 21353 ft 410 kts 130°
2026-05-08 03:58 20.86762 -100.66847 21827 ft 412 kts 130°
2026-05-08 03:58 20.85004 -100.64407 22276 ft 414 kts 130°
2026-05-08 03:59 20.83244 -100.61959 22729 ft 417 kts 130°
2026-05-08 03:59 20.81472 -100.59495 23196 ft 419 kts 130°
2026-05-08 03:59 20.79692 -100.57019 23654 ft 420 kts 131°
2026-05-08 03:59 20.77912 -100.54541 24107 ft 420 kts 131°
2026-05-08 04:00 20.76122 -100.52054 24448 ft 423 kts 131°
2026-05-08 04:00 20.74319 -100.49548 24768 ft 427 kts 131°
2026-05-08 04:00 20.72501 -100.47024 25105 ft 430 kts 131°
2026-05-08 04:00 20.70695 -100.44516 25439 ft 433 kts 131°
2026-05-08 04:01 20.68830 -100.41926 25777 ft 436 kts 131°
2026-05-08 04:01 20.66997 -100.39385 26099 ft 439 kts 131°
2026-05-08 04:01 20.65107 -100.36763 26422 ft 442 kts 131°
2026-05-08 04:01 20.63245 -100.34182 26739 ft 445 kts 131°
2026-05-08 04:02 20.61358 -100.31567 27044 ft 447 kts 131°
2026-05-08 04:02 20.59446 -100.28919 27646 ft 450 kts 131°
2026-05-08 04:02 20.57533 -100.26270 27944 ft 453 kts 131°
2026-05-08 04:02 20.55597 -100.23591 28229 ft 456 kts 131°
2026-05-08 04:03 20.53656 -100.20907 28507 ft 458 kts 131°
2026-05-08 04:03 20.49769 -100.15532 28325 ft 453 kts 131°
2026-05-08 04:03 20.47856 -100.12885 28066 ft 443 kts 131°
2026-05-08 04:04 20.45997 -100.10315 27841 ft 432 kts 131°
2026-05-08 04:04 20.44202 -100.07836 27623 ft 422 kts 131°
2026-05-08 04:04 20.42423 -100.05381 27409 ft 412 kts 131°
2026-05-08 04:04 20.40691 -100.02991 27203 ft 402 kts 131°
2026-05-08 04:05 20.38996 -100.00656 26825 ft 395 kts 131°
2026-05-08 04:05 20.37318 -99.98346 26386 ft 394 kts 131°
2026-05-08 04:05 20.35642 -99.96040 25926 ft 393 kts 131°
2026-05-08 04:05 20.33969 -99.93739 25466 ft 392 kts 131°
2026-05-08 04:06 20.32305 -99.91450 25018 ft 391 kts 131°
2026-05-08 04:06 20.30637 -99.89158 24577 ft 390 kts 131°
2026-05-08 04:06 20.28978 -99.86877 24137 ft 389 kts 131°
2026-05-08 04:06 20.27882 -99.85370 23823 ft 389 kts 131°
2026-05-08 04:07 20.25675 -99.82340 22972 ft 391 kts 131°
2026-05-08 04:07 20.24548 -99.80792 22539 ft 392 kts 131°
2026-05-08 04:07 20.22338 -99.77758 21811 ft 390 kts 131°
2026-05-08 04:07 20.21202 -99.76229 21448 ft 389 kts 131°
2026-05-08 04:08 20.19794 -99.73815 20912 ft 393 kts 114°
2026-05-08 04:08 20.18928 -99.71058 20399 ft 392 kts 113°
2026-05-08 04:08 20.17790 -99.68445 19885 ft 387 kts 122°
2026-05-08 04:08 20.16413 -99.65999 19384 ft 385 kts 124°
2026-05-08 04:09 20.14995 -99.63577 18889 ft 384 kts 124°
2026-05-08 04:09 20.13577 -99.61179 18403 ft 382 kts 124°
2026-05-08 04:09 20.12160 -99.58791 17855 ft 381 kts 124°
2026-05-08 04:09 20.10755 -99.56409 17288 ft 379 kts 124°
2026-05-08 04:10 20.09355 -99.54046 16843 ft 375 kts 124°
2026-05-08 04:10 20.07969 -99.51723 16461 ft 369 kts 124°
2026-05-08 04:10 20.06618 -99.49420 16069 ft 364 kts 124°
2026-05-08 04:10 20.05293 -99.47150 15686 ft 358 kts 124°
2026-05-08 04:11 20.03987 -99.44945 15312 ft 354 kts 124°
2026-05-08 04:11 20.02676 -99.42766 15061 ft 346 kts 124°
2026-05-08 04:11 20.01393 -99.40639 14819 ft 337 kts 124°
2026-05-08 04:11 20.00127 -99.38537 14571 ft 328 kts 124°
2026-05-08 04:12 19.98929 -99.36548 14345 ft 321 kts 124°
2026-05-08 04:12 19.97739 -99.34570 14122 ft 314 kts 124°
2026-05-08 04:12 19.96585 -99.32647 13975 ft 303 kts 124°
2026-05-08 04:12 19.95467 -99.30783 13826 ft 295 kts 124°
2026-05-08 04:13 19.94375 -99.28962 13593 ft 289 kts 124°
2026-05-08 04:13 19.93301 -99.27177 13360 ft 284 kts 124°
2026-05-08 04:13 19.92241 -99.25420 13138 ft 282 kts 124°
2026-05-08 04:13 19.91181 -99.23670 12947 ft 279 kts 124°
2026-05-08 04:14 19.90129 -99.21938 12798 ft 278 kts 124°
2026-05-08 04:14 19.89080 -99.20219 12680 ft 276 kts 124°
2026-05-08 04:14 19.88046 -99.18514 12606 ft 274 kts 123°
2026-05-08 04:14 19.87061 -99.16785 12481 ft 273 kts 129°
2026-05-08 04:15 19.85732 -99.15372 12285 ft 269 kts 137°
2026-05-08 04:15 19.84361 -99.14021 12066 ft 268 kts 138°
2026-05-08 04:15 19.82987 -99.12692 11713 ft 271 kts 138°
2026-05-08 04:15 19.81595 -99.11335 11306 ft 274 kts 137°
2026-05-08 04:16 19.80206 -99.09967 11086 ft 267 kts 137°
2026-05-08 04:16 19.78895 -99.08667 11019 ft 250 kts 137°
2026-05-08 04:16 19.77650 -99.07429 11012 ft 243 kts 137°
2026-05-08 04:16 19.76416 -99.06201 11011 ft 243 kts 138°
2026-05-08 04:17 19.75185 -99.04974 11009 ft 243 kts 138°
2026-05-08 04:17 19.73953 -99.03746 11013 ft 243 kts 137°
2026-05-08 04:17 19.72737 -99.02533 11013 ft 236 kts 137°
2026-05-08 04:17 19.71553 -99.01351 11014 ft 232 kts 138°
2026-05-08 04:18 19.70377 -99.00178 11009 ft 231 kts 138°
2026-05-08 04:18 19.69216 -98.99021 11012 ft 231 kts 138°
2026-05-08 04:18 19.68045 -98.97853 10806 ft 231 kts 138°
2026-05-08 04:18 19.66873 -98.96685 10794 ft 231 kts 137°
2026-05-08 04:19 19.65703 -98.95519 10665 ft 230 kts 137°
2026-05-08 04:19 19.64536 -98.94356 10599 ft 230 kts 138°
2026-05-08 04:19 19.63366 -98.93191 10439 ft 230 kts 137°
2026-05-08 04:19 19.62209 -98.92038 10251 ft 226 kts 137°
2026-05-08 04:20 19.61075 -98.90908 10037 ft 222 kts 137°
2026-05-08 04:20 19.59951 -98.89790 9813 ft 221 kts 137°
2026-05-08 04:20 19.58832 -98.88676 9589 ft 220 kts 137°
2026-05-08 04:20 19.57714 -98.87565 9523 ft 220 kts 137°
2026-05-08 04:21 19.56376 -98.86840 9467 ft 220 kts 175°
2026-05-08 04:21 19.54946 -98.87229 9434 ft 214 kts 214°
2026-05-08 04:21 19.53935 -98.88363 9394 ft 214 kts 237°
2026-05-08 04:21 19.53187 -98.89748 9314 ft 218 kts 241°
2026-05-08 04:22 19.52436 -98.91146 9155 ft 219 kts 240°
2026-05-08 04:22 19.51665 -98.92541 8957 ft 219 kts 240°
2026-05-08 04:22 19.50884 -98.93940 8946 ft 220 kts 240°